Location: Blazny
(46.0612°N, 84.4033°W)
Time: 20:09:58
(UTC-04:00)

Envisat - Pass Details

Date: 14 September 2024
Orbit: 762 x 764 km, 98.3° (Epoch: 11 October)

Event Time Altitude Azimuth Distance (km) Brightness Sun altitude
Rises 04:05:38 0° 22° (NNE) 3,237 7.2 -30.3°
Reaches altitude 10° 04:08:11 10° 32° (NNE) 2,306 6.3 -30.0°
Maximum altitude 04:12:44 33° 96° (E) 1,269 4.4 -29.4°
Enters shadow 04:13:59 29° 124° (SE) 1,373 4.4 -29.3°
